{"data":{"norad_id":57772,"intl_designator":"2023-134B","name":"STARLINK-30354","alt_names":[],"object_type":"PAYLOAD","status":"ACTIVE","operator":null,"country":"US","launch_date":"2023-09-04","launch_site_code":"AFETR","launch_vehicle":null,"mission":null,"orbit_class":"UNKNOWN","rcs_meters":null,"size_class":null,"mass_kg":null,"dimensions":null,"purposes":["comms"],"wikipedia_slug":null,"has_3d_model":false,"image_url":null,"decayed_at":null,"tle_current":{"epoch":"2026-05-25T05:08:01.806720Z","epoch_age_seconds":59608,"freshness":"FRESH","line1":"1 57772U 23134B   26145.21390980  .00000596  00000+0  31187-4 0  9994","line2":"2 57772  43.0035 125.4292 0001681 282.5486  77.5177 15.27579853151172","mean_motion":15.27579853,"eccentricity":0.0001681,"inclination_deg":43.0035,"raan_deg":125.4292,"arg_perigee_deg":282.5486,"mean_anomaly_deg":77.5177,"bstar":3.1187e-5,"rev_number":15117,"period_min":94.266757785002,"perigee_km":481.89617075383,"apogee_km":484.20290166731,"semimajor_km":6861.1865362106,"source":"CELESTRAK","updated_at":"2026-05-25T13:38:18.403631Z"}}}